556  
NZUS99 KDVN 201110  
HRRRRR  
HOURLY WEATHER ROUNDUP  
NATIONAL WEATHER SERVICE QUAD CITIES IA IL  
500 AM CST WED FEB 20 2019  
 
NOTE: "FAIR" INDICATES FEW OR NO CLOUDS BELOW 12,000 FEET WITH  
NO SIGNIFICANT WEATHER AND/OR OBSTRUCTIONS TO VISIBILITY.  
------------------------------------------------------------------  
 
CITY SKY/WX TMP DP RH WIND PRES REMARKS  
BURLINGTON FRZ RAIN 30 26 85 E12 29.86S FOG WCI 20  
CEDAR RAPIDS LGT SNOW 25 24 96 E25G36 29.83F FOG WCI 9  
DAVENPORT LGT SNOW 27 24 89 E20G31 29.91F FOG WCI 13  
DUBUQUE LGT SNOW 25 22 88 E20 29.92F FOG WCI 11  
IOWA CITY LGT SNOW 28 25 88 E20G30 29.87F FOG WCI 15  
MOLINE LGT SNOW 29 26 89 E20 29.89F FOG WCI 16  
------------------------------------------------------------------  
THE STATIONS BELOW ARE NOT NWS STATIONS AND ARE NOT SUBJECT TO NWS  
QUALITY CONTROL. SOME STATIONS DO NOT REPORT WEATHER SUCH AS FOG.  
* - STATIONS THAT REPORT TMP AND DP IN WHOLE DEGREES CELSIUS, WHICH  
ARE THEN CONVERTED TO FAHRENHEIT.  
------------------------------------------------------------------  
 
CITY SKY/WX TMP DP RH WIND PRES REMARKS  
CLINTON LGT SNOW 27 25 92 E24 29.92F FOG WCI 12  
FAIRFIELD * CLOUDY 28 27 93 E29G53 29.81F FOG WCI 13  
FORT MADISON * MIX PCPN 28 28 100 E10 29.86F WCI 19  
FREEPORT LGT SNOW 26 25 96 E18 30.03F VSB 1 WCI 12  
INDEPENDENCE * LGT SNOW 27 25 93 E23G30 29.85F WCI 12  
KEOKUK * CLOUDY 30 30 100 E16G24 29.84F FOG WCI 19  
MACOMB MIX PCPN 31 30 96 E14 29.88F WCI 20  
MONTICELLO * NOT AVBL  
MT PLEASANT MIX PCPN 32 32 100 E15 29.85F WCI 22  
MUSCATINE * LGT SNOW 28 27 93 E14G23 29.90F WCI 17  
SAVANNA LGT SNOW 27 25 93 E16G24 29.97F WCI 14  
STERLING/R.F. LGT SNOW 27 25 92 E21 29.97F FOG WCI 13  
VINTON * CLOUDY 26 24 91 E20G28 29.86F FOG WCI 12  
WASHINGTON * LGT SNOW 28 28 100 E26 29.83F WCI 13  
------------------------------------------------------------------  
 
 
CLICK HERE TO GO TO PREVIOUS BULLETINS.

The Nexlab IL Page
The Nexlab IA Page
The Nexlab MO Page Main Text Page